Regional Weather Roundup
Issued by NWS

Home | Current Version | Previous Version | Graphics & Text | Print | Product List | Glossary On
Versions: 1 2 3 4 5 6 7 8 9 10 11 12 13 14 15 16 17 18 19 20 21 22 23 24 25 26 27 28 29 30 31 32 33 34 35 36 37 38 39 40 41 42 43 44 45 46 47 48 49 50
000
ASUS45 KCYS 290910
RWRWY

WYOMING REGIONAL WEATHER ROUNDUP
NATIONAL WEATHER SERVICE CHEYENNE WY
300 AM MDT FRI AUG 29 2014

NOTE:  "FAIR" INDICATES FEW OR NO CLOUDS BELOW 12,000 FEET
WITH NO SIGNIFICANT WEATHER AND/OR OBSTRUCTIONS TO VISIBILITY.

WYZ001-291000-
YELLOWSTONE NATIONAL PARK

CITY           SKY/WX    TMP DP  RH WIND       PRES   REMARKS
LK YELLOWSTONE   N/A     45  45 100 CALM      30.30S
W YELLOWSTONE  NOT AVBL

$$
WYZ002>013-054>058-071-098>099-291000-
NORTHERN WYOMING

CITY           SKY/WX    TMP DP  RH WIND       PRES   REMARKS
JACKSON        PTCLDY    54  46  76 N9        30.21S
CODY           CLOUDY    61  46  59 N7        30.13S
GREYBULL       CLOUDY    62  55  77 N9        30.09R
WORLAND        LGT RAIN  67  49  52 N16G26    30.07R
SHERIDAN       CLOUDY    65  50  58 NW31G40   30.03R
BUFFALO        MOCLDY    64  47  53 NW16G26   30.05R
GILLETTE       PTCLDY    63  48  58 VRB3      29.96S
HULETT         FAIR      57  48  72 MISG      29.97
NEWCASTLE      FAIR      54  46  76 N8        29.98

$$
WYZ014>020-022>026-101>103-291000-
CENTRAL WYOMING

CITY           SKY/WX    TMP DP  RH WIND       PRES   REMARKS
BIG PINEY      PTCLDY    46  41  82 W5        30.24S
PINEDALE       MOSUNNY   43  41  93 W6        30.24F
DUBOIS         FAIR      48  41  76 CALM      30.22F
LANDER         PTCLDY    62  42  47 W7        30.09F
RIVERTON       PTCLDY    64  40  41 NW16      30.10R
CASPER         CLEAR     53  43  68 SW5       30.05S
DOUGLAS        CLEAR     50  48  93 S5        30.04F

$$
WYZ021-027>030-104>119-291000-
SOUTHERN WYOMING

CITY           SKY/WX    TMP DP  RH WIND       PRES   REMARKS
EVANSTON       CLEAR     52  41  66 S6        30.27R
KEMMERER       SUNNY     50  43  76 CALM      30.27S
FORT BRIDGER   FAIR      58  41  53 W9        30.27S
ROCK SPRINGS   CLEAR     55  43  63 SW13      30.22S
DIXON          CLOUDY    50  47  90 E3        30.25S
RAWLINS        CLEAR     58  43  57 W18       30.18S
SARATOGA       FAIR      48  43  81 SE7       30.22S
LARAMIE        MOCLDY    45  42  89 SE7       30.20S
CHEYENNE       CLEAR     53  42  66 NW9       30.12S
TORRINGTON     CLEAR     52  49  89 N3        29.98F
PINE BLUFFS    FAIR      46  45  93 SW6       30.06F

$$


USA.gov is the U.S. government's official web portal to all federal, state and local government web resources and services.